Location: Friaudour
(46.0460°N, 1.2873°E)
Time: 08:48:48
(UTC+00:00)

Lacrosse 5 - Pass Details

Date: 14 July 2020
Orbit: 717 x 720 km, 57.0° (Epoch: 11 August)

Event Time Altitude Azimuth Distance (km) Brightness Sun altitude
Exits shadow 00:10:40 55° 213° (SSW) 863 1.9 -22.3°
Maximum altitude 00:11:47 80° 138° (SE) 732 1.7 -22.3°
Drops below altitude 10° 00:16:52 10° 52° (NE) 2,205 4.9 -22.2°
Sets 00:19:15 0° 52° (NE) 3,129 5.8 -22.2°
